2023/03/05 00:00:00,70.2,-0.2
2023/03/05 00:10:00,70.2,-0.5
2023/03/05 00:20:00,70.3,-0.4
2023/03/05 00:30:00,70.3,-0.3
2023/03/05 00:40:00,70.4,-0.7
2023/03/05 00:50:00,70.3,-0.7
2023/03/05 01:00:00,70.3,-1.0
2023/03/05 01:10:00,70.3,-0.7
2023/03/05 01:20:00,70.3,-1.0
2023/03/05 01:30:00,70.3,-1.1
2023/03/05 01:40:00,70.4,-0.9
2023/03/05 01:50:00,70.3,-0.9
2023/03/05 02:00:00,70.3,-1.0
2023/03/05 02:10:00,70.3,-1.0
2023/03/05 02:20:00,70.3,-0.8
2023/03/05 02:30:00,70.3,-0.8
2023/03/05 02:40:00,70.3,-0.9
2023/03/05 02:50:00,70.3,-1.0
2023/03/05 03:00:00,70.2,-0.8
2023/03/05 03:10:00,70.2,-0.9
2023/03/05 03:20:00,70.2,-1.0
2023/03/05 03:30:00,70.3,-1.1
2023/03/05 03:40:00,70.3,-1.1
2023/03/05 03:50:00,70.3,-1.2
2023/03/05 04:00:00,70.3,-1.3
2023/03/05 04:10:00,70.3,-1.2
2023/03/05 04:20:00,70.3,-1.1
2023/03/05 04:30:00,70.3,-1.3
2023/03/05 04:40:00,70.2,-1.2
2023/03/05 04:50:00,70.2,-1.3
2023/03/05 05:00:00,70.2,-1.2
2023/03/05 05:10:00,70.2,-1.2
2023/03/05 05:20:00,70.2,-1.2
2023/03/05 05:30:00,70.2,-1.3
2023/03/05 05:40:00,70.2,-1.3
2023/03/05 05:50:00,70.2,-1.3
2023/03/05 06:00:00,70.2,-1.2
2023/03/05 06:10:00,70.2,-1.2
2023/03/05 06:20:00,70.2,-1.0
2023/03/05 06:30:00,70.2,-1.0
2023/03/05 06:40:00,70.1,-1.1
2023/03/05 06:50:00,70.1,-0.9
2023/03/05 07:00:00,70.1,-0.6
2023/03/05 07:10:00,70.1,-0.7
2023/03/05 07:20:00,70.1,-0.7
2023/03/05 07:30:00,70.1,-0.5
2023/03/05 07:40:00,70.2,-0.4
2023/03/05 07:50:00,70.1,-0.6
2023/03/05 08:00:00,69.9,-0.4
2023/03/05 08:10:00,69.9,-0.1
2023/03/05 08:20:00,70.0, 0.0
2023/03/05 08:30:00,70.0, 0.3
2023/03/05 08:40:00,70.0, 0.6
2023/03/05 08:50:00,69.8, 1.6
2023/03/05 09:00:00,69.9, 1.7
2023/03/05 09:10:00,69.8, 3.0
2023/03/05 09:20:00,69.8, 2.5
2023/03/05 09:30:00,69.5, 3.3
2023/03/05 09:40:00,69.0, 4.9
2023/03/05 09:50:00,68.3, 5.5
2023/03/05 10:00:00,68.4, 6.7
2023/03/05 10:10:00,68.7, 6.9
2023/03/05 10:20:00,69.0, 6.3
2023/03/05 10:30:00,68.9, 7.8
2023/03/05 10:40:00,68.0, 7.7
2023/03/05 10:50:00,68.0, 6.7
2023/03/05 11:00:00,67.9, 8.4
2023/03/05 11:10:00,66.9, 8.1
2023/03/05 11:20:00,67.9, 8.1
2023/03/05 11:30:00,67.5, 8.3
2023/03/05 11:40:00,67.8, 8.6
2023/03/05 11:50:00,68.8, 8.7
2023/03/05 12:00:00,68.9, 9.1
2023/03/05 12:10:00,68.9,10.0
2023/03/05 12:20:00,68.9,10.2
2023/03/05 12:30:00,68.2,10.8
2023/03/05 12:40:00,67.4,12.5
2023/03/05 12:50:00,66.9,13.7
2023/03/05 13:00:00,67.0,14.3
2023/03/05 13:10:00,67.0,13.9
2023/03/05 13:20:00,67.5,11.3
2023/03/05 13:30:00,68.7, 8.7
2023/03/05 13:40:00,41.6,12.8
2023/03/05 13:50:00,42.4,12.1
2023/03/05 14:00:00,67.7,10.7
2023/03/05 14:10:00,33.8,14.1
2023/03/05 14:20:00,24.4,15.9
2023/03/05 14:30:00,33.1,15.0
2023/03/05 14:40:00,40.9,15.2
2023/03/05 14:50:00,66.3,14.2
2023/03/05 15:00:00,68.0,10.6
2023/03/05 15:10:00,67.8, 8.8
2023/03/05 15:20:00,67.7, 8.3
2023/03/05 15:30:00,67.2, 9.6
2023/03/05 15:40:00,67.4, 8.4
2023/03/05 15:50:00,67.6, 7.8
2023/03/05 16:00:00,67.8, 7.2
2023/03/05 16:10:00,67.0,11.2
2023/03/05 16:20:00,66.7,10.2
2023/03/05 16:30:00,67.0, 9.6
2023/03/05 16:40:00,67.7, 7.1
2023/03/05 16:50:00,68.1, 6.1
2023/03/05 17:00:00,68.2, 5.8
2023/03/05 17:10:00,68.2, 5.4
2023/03/05 17:20:00,68.1, 5.3
2023/03/05 17:30:00,68.3, 4.4
2023/03/05 17:40:00,68.4, 3.4
2023/03/05 17:50:00,68.4, 3.9
2023/03/05 18:00:00,68.4, 3.1
2023/03/05 18:10:00,68.3, 2.4
2023/03/05 18:20:00,68.2, 2.3
2023/03/05 18:30:00,68.4, 2.1
2023/03/05 18:40:00,68.4, 1.9
2023/03/05 18:50:00,68.3, 1.8
2023/03/05 19:00:00,68.2, 1.4
2023/03/05 19:10:00,68.1, 1.1
2023/03/05 19:20:00,68.2, 1.1
2023/03/05 19:30:00,68.1, 1.1
2023/03/05 19:40:00,68.1, 0.9
2023/03/05 19:50:00,68.1, 0.7
2023/03/05 20:00:00,68.1, 0.4
2023/03/05 20:10:00,68.0, 0.0
2023/03/05 20:20:00,68.1, 0.0
2023/03/05 20:30:00,68.1,-0.3
2023/03/05 20:40:00,68.1,-0.4
2023/03/05 20:50:00,68.1,-0.4
2023/03/05 21:00:00,68.2,-0.4
2023/03/05 21:10:00,68.2,-0.5
2023/03/05 21:20:00,68.1,-0.2
2023/03/05 21:30:00,68.1,-0.4
2023/03/05 21:40:00,68.2, 0.1
2023/03/05 21:50:00,68.1,-0.3
2023/03/05 22:00:00,68.1, 0.1
2023/03/05 22:10:00,68.1,-0.2
2023/03/05 22:20:00,68.1,-0.1
2023/03/05 22:30:00,68.1,-0.4
2023/03/05 22:40:00,68.1,-0.4
2023/03/05 22:50:00,68.1,-0.3
2023/03/05 23:00:00,68.1,-0.3
2023/03/05 23:10:00,68.1,-0.5
2023/03/05 23:20:00,68.1,-0.4
2023/03/05 23:30:00,68.1,-0.5
2023/03/05 23:40:00,68.1,-0.1
2023/03/05 23:50:00,68.2,-0.3
